Location: Lahitte
(43.6596°N, 0.6805°E)
Time: 11:24:45
(UTC+00:00)

Cosmos 2322 - Pass Details

Date: 15 May 2026
Orbit: 840 x 853 km, 71.0° (Epoch: 6 June)

Event Time Altitude Azimuth Distance (km) Brightness Sun altitude
Rises 23:34:32 0° 330° (NNW) 3,422 7.9 -27.1°
Reaches altitude 10° 23:37:03 10° 325° (NW) 2,480 6.9 -27.2°
Enters shadow 23:42:16 48° 260° (W) 1,099 4.1 -27.2°
